Flag for Colombia Weather past 2 weeks in Cartagena, Colombia

Now
86 °F

Passing clouds.


Feels Like: 92 °F
Forecast: 77 / 87 °F
Wind: 16 mph from Northeast

Location: Cartagena / Rafael Nunez

Current Time: Jan 28, 2015 at 2:03:52 PM

Latest Report: Jan 28, 2015 at 1:00 PM


Visibility: N/A

Pressure: 29.82 "Hg

Humidity: 62%

Dew point: 72 °F

Location of CartagenaLocation

Historic Weather in Cartagena — Graph

°F

Cartagena temperature yesterday

Maximum temperature yesterday: 86 °F (at 10:00 AM)
Minimum temperature yesterday: 79 °F (at 7:00 PM)
Average temperature yesterday: 82 °F

Past Weeks' High & Low Weather Summary

 TemperatureHumidityPressure
High88 °F (Jan 16, 12:00 PM)100% (Jan 14, 9:00 PM)29.93 "Hg (Jan 14, 9:00 PM)
Low75 °F (Jan 14, 6:00 AM)42% (Jan 26, 7:00 PM)29.72 "Hg (Jan 26, 3:00 AM)
Average81 °F81%29.83 "Hg
* Reported Jan 13 1:00 PM — Jan 28 1:00 PM, Cartagena, Weather by CustomWeather, © 2014

Note: Actual official high and low records may vary slightly from our data, if they occured in-between our weather recording intervals... More about our weather records

Advertising

Cartagena weather history for previous 24 hours

 ConditionsComfort  
Time TempWeatherWind HumidityBarometerVisibility
1:00 PM
Jan 28
86 °FPassing clouds.16 mph62%29.82 "HgN/A
12:00 PM86 °FPassing clouds.12 mph66%29.86 "HgN/A
11:00 AM86 °FPassing clouds.10 mph66%29.87 "HgN/A
10:00 AM84 °FPassing clouds.18 mph70%29.87 "HgN/A
9:00 AM82 °FPassing clouds.14 mph79%29.86 "HgN/A
8:00 AM81 °FScattered clouds.10 mph84%29.85 "HgN/A
7:00 AM79 °FPartly sunny.7 mph89%29.83 "Hg6 mi
6:00 AM79 °FPassing clouds.12 mph89%29.81 "HgN/A
5:00 AM79 °FWarm.12 mph84%29.81 "HgN/A
4:00 AM79 °FPassing clouds.12 mph84%29.79 "HgN/A
3:00 AM79 °FPassing clouds.7 mph84%29.80 "HgN/A
1:00 AM79 °FPassing clouds.12 mph84%29.83 "HgN/A
11:00 PM
Jan 27
79 °FPassing clouds.7 mph84%29.86 "HgN/A
10:00 PM79 °FPassing clouds.9 mph84%29.87 "HgN/A
9:00 PM79 °FPassing clouds.5 mph84%29.87 "HgN/A
8:00 PM81 °FPassing clouds.9 mph74%29.84 "HgN/A
7:00 PM79 °FPassing clouds.12 mph79%29.82 "HgN/A
6:00 PM81 °FScattered clouds.6 mph79%29.81 "HgN/A
5:00 PM82 °FScattered clouds.13 mph70%29.80 "HgN/A
4:00 PM84 °FPassing clouds.17 mph70%29.79 "HgN/A
3:00 PM86 °FPassing clouds.13 mph66%29.80 "HgN/A
2:00 PM84 °FScattered clouds.15 mph74%29.81 "HgN/A
Weather by CustomWeather, © 2014

See weather overviewHow to use our weather pages